Notices

What's New in latest Release from April 7th, 2021:

- Updated Glossary, including Speed of Maximum Gust, and Total Hourly Precipitation

- Updated national and regional climate services offices contacts and prices information

- Addition of station inventory lists for 1981-2010, 1971-2000, and 1961-1990 Normals.

If you haven't already, please take our survey and provide feedback about our website: https://eccc.sondage-survey.ca/f/LanguageSelection.aspx?s=442ca660-fcf1-47c0-95a9-59707d6fd709

Hourly Data Report for June 15, 2006

TORONTO CITY
ONTARIO

43°40'00.000" N
79°24'00.000" W
112.50 m
6158355
71508
XTO

Download Data

Hourly Data (June 2006)
Hourly Data Report for June 15, 2006
TIME
LST
Temp Definition
°C
Dew Point Definition
°C
Rel Hum Definition
%
Precip. Amount Definition
mm

Wind Dir Definition
10's deg

Wind Spd Definition
km/h
Visibility Definition
km
Stn Press Definition
kPa
Hmdx Definition


Wind Chill Definition


Weather Definition


00:00 17.2 8.7 57   LegendMM LegendMM   100.23     LegendNANA
01:00 16.6 8.8 60   LegendMM LegendMM   100.23     LegendNANA
02:00 16.2 8.6 61   LegendMM LegendMM   100.23     LegendNANA
03:00 15.8 8.6 62   LegendMM LegendMM   100.24     LegendNANA
04:00 15.3 8.5 64   LegendMM LegendMM   100.29     LegendNANA
05:00 14.8 8.4 65   LegendMM LegendMM   100.35     LegendNANA
06:00 15.6 8.8 64   LegendMM LegendMM   100.44     LegendNANA
07:00 17.9 9.1 56   LegendMM LegendMM   100.48     LegendNANA
08:00 20.3 9.2 49   LegendMM LegendMM   100.52     LegendNANA
09:00 22.2 7.6 39   LegendMM LegendMM   100.54     LegendNANA
10:00 23.5 4.5 29   LegendMM LegendMM   100.53     LegendNANA
11:00 24.6 7.5 34   LegendMM LegendMM   100.53 25   LegendNANA
12:00 24.2 5.1 29   LegendMM LegendMM   100.53     LegendNANA
13:00 24.0 5.6 30   LegendMM LegendMM   100.51     LegendNANA
14:00 23.9 7.4 35   LegendMM LegendMM   100.50     LegendNANA
15:00 23.7 6.6 33   LegendMM LegendMM   100.49     LegendNANA
16:00 23.2 5.2 31   LegendMM LegendMM   100.45     LegendNANA
17:00 23.7 6.7 33   LegendMM LegendMM   100.43     LegendNANA
18:00 23.2 6.4 34   LegendMM LegendMM   100.42     LegendNANA
19:00 22.8 7.2 37   LegendMM LegendMM   100.45     LegendNANA
20:00 20.8 6.7 40   LegendMM LegendMM   100.46     LegendNANA
21:00 19.5 7.1 44   LegendMM LegendMM   100.52     LegendNANA
22:00 19.2 7.2 46   LegendMM LegendMM   100.55     LegendNANA
23:00 17.9 6.8 48   LegendMM LegendMM   100.53     LegendNANA

Notes on Data Quality.

Legend

  • E = Estimated
  • M = Missing
  • NA = Not Available*
  • [empty] = Indicates an unobserved value
Date modified: